ONEWEB-0134, 47280

Orbit data source: Space-Track

ONEWEB-0134, 47280 is a payload satellite owned by One Web (UK) in LEO that was launched on Fri, 18 Dec 2020 UTC via a SOYUZ-2-1B launch vehicle from the Vostochny Cosmodrome (VOSTO). Payload-class satellites include a variety of spacecraft equipped with specific instruments for various scientific and technological missions. These include communications satellites like Starlink; space stations such as the ISS; scientific satellites like the Hubble; Earth observation satellites from companies like Planet Labs, Umbra, and HawkEye 360; GPS; miniature CubeSats for education and research; and military/defense satellites.

Loading next visibility...
Identifier
47280, 2020-100Y
Orbit
LEO
Country
Flag of UKUK
Related business
Manufacturer
One Web
Mission
Operational Commercial Communications
Bus & Motor
ARROW, Unknown motor
Mass
148 kg wet, ~140 kg dry
Launch date (UTC)
2020-12-18 (5 years ago)
Launch vehicle
SOYUZ-2-1B
Launch site
Vostochny Cosmodrome (VOSTO)
Object type
Payload
Rocket body
Debris
Shape & HBR
Trap Box + 2 Pan, 6.7 m
Radar Cross Section
3.464 m², Large (>1 m²)

Expand to show TLE details & history
Last TLE update: 9 hours ago

TLE from 9 hours ago
0 ONEWEB-0134
1 47280U 20100Y   26095.47145838 -.00000438  00000-0 -12532-2 0  9998
2 47280  87.9020   5.0815 0002064  76.0888 284.0470 13.12441813255170
Epoch: 2026-04-05T11:18Z
TLE epoch observation values (Epoch: 2026-04-05T11:18:54.004Z)
Latitude
Longitude
1.58008°
Altitude
1,216.239 km
Speed
7.246 km/s
True Right ascension
00h 20m 19s
True Declination
0° 00' 00"
Sunlit
Object was in daylight at epoch
Visualization orbit readout
Latitude
Unknown
Longitude
Unknown
Altitude
Unknown
Speed
Unknown
Apparent Right ascension
Unknown
Apparent Declination
Unknown
Sunlit
N/A
Visualization observer readout
Local Sidereal Time
02:44:15
Azimuth
Unknown
Elevation
Unknown
Doppler factor
Unknown
Orbital elements
Apogee altitude
1,212.411 km
Perigee altitude
1,209.278 km
Semi-major axis
7,588.981 km
Eccentricity
0.00021
Inclination
87.902°
RAAN
5.0815°
Arg. of periapsis
76.0888°
True anomaly
284.02405°
Mean anomaly
284.047°
Eccentric anomaly
284.03553°
Mean motion
3.28298 °/min
Orbital period
109.66 mins
BSTAR
-0.0012532
Loading maneuver chart data...
Computing Atmospheric mass density...
Loading historical data...
Loading historical data...
Loading historical data...
Loading historical data...
Loading historical data...
Loading historical data...
Loading historical data...

Documentation

Showing up to 5 results
|